sat.trackr.live / text

‹ back to catalog

LEGION 6

NORAD 62901 · 2025-025B

PAYLOAD ACTIVE UNKNOWN

§ Identity

Operator
Country
US
Launch date
2025-02-04
Launch site
AFETR
Launch vehicle
Mass (kg)
RCS (m²)

External: N2YO · Heavens-Above · Gunter

§ Orbital elements

Epoch: 2026-05-24T22:24:15.899904Z

Period
95.00 min
Inclination
45.0022°
Eccentricity
0.0007677
Mean motion
15.15789209 rev/d
Perigee alt
513.3 km
Apogee alt
523.9 km
Semi-major
6,896.7 km
B*
2.1041e-4
RAAN
335.2207°
Arg perigee
339.7667°
Mean anomaly
20.2907°
Rev number
7,210

§ Raw data

LEGION 61 62901U 25025B   26144.93351736  .00003825  00000+0  21041-3 0  99942 62901  45.0022 335.2207 0007677 339.7667  20.2907 15.15789209 72100

JSON: /api/v1/satellites/62901 · /tle

For live sub-satellite position, see the globe view (requires WebGL).

§ Visibility from observer

Set your observer location to see the next 7 days of passes ≥ 10°. The values pass through the URL so the page stays shareable.

No JS? Fill the form by hand. The geolocation button needs JavaScript.